Torna al catalogo

STARLINK-34575

AttivoComunicazioniSSO
NORAD 64859·PAYLOAD·🇺🇸 United States

Lanciato Jul 19, 2025 da Vandenberg Space Force Base

Loading…

Prossimi Passaggi (prossime 24 ore)

TLE

AggiornatoSource: CelesTrak SupGP

Epoca: Sep 14, 2026, 21:12 UTC

1 64859C 25152T   26257.88381944  .00039434  00000+0  12247-2 0  2571
2 64859  97.2844 108.4719 0001898  91.5369 128.0847 15.33402729    14

Traccia STARLINK-34575 in tempo reale con AllMySat

Download on the App Store